To NAV CANADA Home Page Login to a new session Search on AWWS site Feedback and Comments Disclaimer Vers la page française équivalente Tips FAQ What's new on the site To the Forecasts and Observations / NOTAM section To "File a Flight Plan" website Publications and other links Update of the User's profile FIC Telephone Numbers My Weather Data Folder Route Weather Data Regional Weather Data Local Weather Data To the Forecasts and Observations / NOTAM section
Request Generated 03/29/2015 at 17:19:09 UTC . Weather information available at that time is displayed.

METAR/TAF

MAKKOVIK/NL    

METAR CYFT 291700Z 27019KT 15SM SCT028 M05/M14 A2951 RMK SC4 SLP000=
METAR CYFT 291600Z 27015KT 15SM FEW030 FEW120 M06/M15 A2952 RMK
SC1AC1 SC TR AC TR SLP002=
METAR CYFT 291500Z 26017G22KT 15SM FEW220 M07/M15 A2954 RMK CI1 CI TR
SLP008=

CYFT - No TAF is issued for this station

Your time UTC time
Weather data provided by Environment Canada and NAV CANADA